Terminal Aerodrome Forecast
Issued by NWS Jacksonville, FL

Home | Current Version | Previous Version | Text Only | Print | Product List | Glossary On
Versions: 1 2 3 4 5 6 7 8 9 10 11 12 13 14 15 16 17 18 19
000
FTUS42 KJAX 291350 AAA
TAFJAX
TAF AMD
KJAX 291350Z 2914/3012 08011G18KT P6SM SCT040
     FM300100 07007KT P6SM FEW035 SCT070
     FM300900 04004KT P6SM VCSH SCT025 BKN070=

USA.gov is the U.S. government's official web portal to all federal, state and local government web resources and services.